Weather in Ismailia

Egypt     30°35′59″N   32°14′40″E
temp.,
°C
wind,
m/s
gust,
m/s
humid.,
%
clouds,
%
prec.,
mm/h
press.,
hPa
HPBL,
m
6 march, sat
sat623:00+14ene45610 0.0 1025111
02:00+13ne34660 0.0 102444
05:00+12ne34710 0.0 102337
08:00+14ne35600 0.0 1023243
11:00+19ne56320 0.0 1023690
14:00+23ne55230 0.0 1020954
17:00+20nne77390 0.0 1020629
20:00+16ne69620 0.0 1021372
7 march, sun
sun723:00+14ne36740 0.0 1021154
02:00+13nne34800 0.0 101957
05:00+12nne34820 0.0 102038
08:00+14ne35700 0.0 1020330
11:00+19ne45420 0.0 1019836
14:00+22ne55280 0.0 10171150
17:00+20nne77370 0.0 1017814
20:00+16ne58600 0.0 1018388
8 march, mon
mon823:00+15ne33690 0.0 101879
02:00+13ne23770 0.0 101728
05:00+12ne22840 0.0 101624
08:00+15ne23710 0.0 1018207
11:00+19ne33440 0.0 1017692
14:00+23nne33290 0.0 10161053
17:00+21ene76350 0.0 1016672
20:00+18ne46500 0.0 1017205
9 march, tue
tue923:00+16ene34520 0.0 101752
02:00+16e23450 0.0 101523
05:00+14e124836 0.0 101523
08:00+18ese233432 0.0 1016114
11:00+24ese341713 0.0 1015657
14:00+28ese331225 0.0 10131008
17:00+28e2312100 0.0 1013284
20:00+24ese341782 0.0 101335
10 march, wed
wed1023:00+23sse691840 0.0 1013115
02:00+22sse561925 0.0 101152
05:00+21sse682457 0.0 101084
08:00+23sse692247 0.0 1011212
11:00+35sw1014823 0.0 10102449
14:00+36wsw1317748 0.0 10073593
17:00+35wsw91573 0.0 1007571
20:00+24wnw7122617 0.0 1010470